Location: Newark
(58.8333°N, 23.5833°E)
Time: 16:47:59
(UTC+00:00)

Explorer 7 - Pass Details

Date: 20 November 2019
Orbit: 485 x 680 km, 50.3° (Epoch: 11 December)

Event Time Altitude Azimuth Distance (km) Brightness Sun altitude
Rises 02:32:41 0° 263° (W) 2,825 - -29.3°
Reaches altitude 10° 02:35:28 10° 247° (WSW) 1,881 - -29.0°
Maximum altitude 02:38:36 20° 200° (SSW) 1,315 - -28.6°
Drops below altitude 10° 02:41:35 10° 153° (SSE) 1,790 - -28.2°
Exits shadow 02:41:36 10° 152° (SSE) 1,793 9.6 -28.2°
Sets 02:44:10 0° 135° (SE) 2,643 10.8 -27.9°
